Location: Flotzheim
(48.8375°N, 10.8136°E)
Time: 16:17:13
(UTC+00:00)

NOSS 3-1 (A) - Pass Details

Date: 23 January 2021
Orbit: 735 x 1477 km, 63.4° (Epoch: 26 February)

Event Time Altitude Azimuth Distance (km) Brightness Sun altitude
Rises 17:41:14 0° 317° (NW) 3,828 7.1 -16.4°
Reaches altitude 10° 17:43:45 10° 321° (NW) 2,972 6.4 -16.8°
Maximum altitude 17:50:55 61° 42° (NE) 1,406 4.1 -18.0°
Enters shadow 17:57:06 19° 117° (ESE) 2,754 5.4 -19.0°
